Wind_Speed
13 13 12 12 11 11 12 11 10 10 9 9 9 10 11 12 12 12 12 12 12 12 11 12 12 12 13 13 14 15 15 16 16 17 17 18 19 20 20 20 20 20 20
13 12 12 12 11 11 10 9 9 9 9 9 9 9 10 11 11 11 11 11 12 12 11 12 12 11 11 12 13 13 14 14 16 17 18 18 19 20 21 21 22 22 21
12 12 12 12 11 11 10 10 9 10 10 9 10 10 10 10 10 10 10 11 11 11 11 11 11 12 11 12 13 14 14 16 17 18 19 19 20 21 21 22 22 22 23
13 13 12 12 12 11 11 10 10 10 10 10 10 10 11 11 11 11 11 12 12 11 10 10 11 12 12 13 13 14 15 15 16 17 18 18 19 20 21 21 22 22 22
14 14 13 13 13 12 12 12 12 12 12 11 11 11 10 10 10 11 11 11 11 11 11 11 12 13 14 15 15 16 16 17 18 19 19 19 19 20 21 22 22 22 22
15 14 15 14 14 14 14 14 14 14 14 13 12 12 12 11 10 10 10 10 11 11 11 12 13 14 15 15 16 17 18 18 19 19 20 20 20 21 21 22 23 22 22
17 16 16 16 16 16 16 15 16 16 16 15 14 14 13 12 12 12 12 12 13 13 13 14 14 15 16 17 18 19 19 19 20 20 21 21 22 22 22 22 22 23 23
18 18 17 17 18 18 17 17 17 17 17 17 15 15 15 15 15 14 14 14 15 15 15 15 16 16 17 18 19 20 20 21 21 21 22 22 22 22 22 22 22 23 24
20 19 19 20 20 20 19 18 17 17 17 17 16 17 17 16 16 16 16 16 17 17 17 17 18 19 19 20 20 21 21 22 22 22 22 22 22 22 22 23 23 23 24
20 20 20 20 20 20 19 19 19 18 18 17 17 17 17 17 18 18 18 18 18 17 18 18 19 20 21 22 22 22 22 23 23 23 23 23 23 23 23 24 24 24 24
20 20 20 20 19 19 19 20 20 19 19 18 17 17 18 18 18 18 19 19 19 19 19 20 21 22 22 23 22 22 22 23 23 23 23 23 23 24 24 24 24 24 23
20 20 20 20 19 20 20 20 20 20 19 18 18 18 18 18 18 18 19 19 20 20 20 21 21 22 22 22 22 23 23 23 23 23 23 23 23 23 23 24 24 23 23
21 21 21 22 22 22 22 22 22 21 20 20 20 20 20 20 20 20 20 21 21 21 22 22 22 22 22 22 23 23 24 23 23 23 23 23 23 23 23 23 24 23 23
22 22 23 23 23 23 23 23 23 22 22 21 21 21 21 21 22 22 22 22 22 22 22 23 22 22 22 23 23 24 24 24 23 23 23 23 23 23 23 23 23 24 24
23 23 23 23 23 23 22 22 22 23 23 23 22 22 22 22 22 23 23 23 24 24 24 23 24 24 24 24 24 24 24 23 24 24 24 24 24 24 24 24 24 24 24
22 22 23 23 22 23 23 22 22 23 23 23 23 23 23 23 24 24 24 24 23 24 25 25 25 25 25 24 24 24 24 24 24 24 24 24 24 24 25 24 24 24 24
22 23 23 23 22 23 23 23 23 23 23 23 23 23 23 24 25 25 25 24 24 24 25 25 25 25 24 24 24 24 24 24 24 24 24 24 24 24 24 24 24 25 25
22 23 23 22 22 22 22 22 22 22 22 22 22 23 23 23 23 23 23 24 23 24 24 25 25 24 24 24 24 23 23 23 24 25 24 24 24 25 25 25 25 26 26
22 22 22 22 22 21 21 21 21 21 22 22 22 21 21 22 22 22 22 23 23 23 23 23 23 23 23 23 23 23 23 23 24 25 26 26 26 26 26 26 26 26 26
22 22 21 21 21 21 21 21 20 20 21 21 20 20 21 22 22 22 22 22 22 22 22 22 22 23 23 22 22 22 23 24 24 26 27 27 27 27 27 27 27 27 27
22 22 21 20 20 20 20 20 20 21 21 21 21 21 21 21 22 22 22 22 21 22 22 22 22 22 22 22 22 23 24 24 25 25 26 26 26 27 27 28 27 27 27
22 21 20 20 20 20 20 20 20 20 20 21 21 21 21 22 22 22 22 21 21 21 21 22 22 22 22 22 23 24 24 25 25 25 25 26 26 27 27 27 27 27 27
22 22 21 21 21 21 21 20 20 21 21 21 21 21 21 21 21 22 22 21 21 22 22 22 22 22 23 23 23 24 25 25 26 25 26 26 27 27 28 27 27 27 27
23 22 22 22 22 22 21 21 21 21 22 22 22 21 21 22 22 22 22 22 22 23 23 23 23 23 23 23 24 25 26 26 26 26 26 26 27 27 27 27 26 26 26
23 23 22 22 22 21 21 21 22 22 22 22 22 22 22 23 23 23 23 23 23 24 24 23 24 24 24 25 25 25 25 26 26 26 26 27 27 26 26 26 27 27 27
21 21 21 22 22 22 22 22 22 22 22 22 23 23 23 23 23 23 23 24 25 24 24 24 25 25 26 26 26 26 27 27 27 27 27 27 27 27 27 27 27 27 27
Wind_Direction
280 278 276 277 281 284 285 283 282 279 281 284 278 278 277 275 271 271 272 271 271 272 271 272 271 270 271 274 276 273 272 275 276 276 278 277 279 280 279 280 282 282 286
275 275 275 277 279 282 285 286 286 285 283 282 282 281 281 279 273 270 271 271 270 271 272 273 272 272 274 275 275 275 275 280 282 281 283 281 280 280 278 280 281 284 286
271 269 272 275 277 278 279 284 289 289 289 288 287 285 283 281 280 276 275 275 273 273 273 272 269 271 274 279 281 281 279 282 284 285 286 285 283 282 281 281 282 284 286
270 271 273 275 276 277 276 279 282 285 287 292 291 290 286 280 276 275 273 274 272 274 274 274 276 277 276 280 284 284 286 287 287 287 287 287 287 285 284 282 283 285 287
266 266 269 271 274 276 272 274 278 281 282 285 288 289 286 283 281 278 279 280 275 273 274 276 278 280 281 283 286 288 290 291 293 293 291 290 290 290 288 285 286 288 290
264 264 266 268 271 274 274 274 276 277 277 279 280 285 283 281 285 285 284 288 288 282 279 279 279 280 281 283 285 288 292 293 293 293 294 295 294 293 290 289 288 289 290
263 264 265 266 270 273 275 275 274 274 276 278 275 279 278 278 280 279 280 283 287 289 285 283 283 283 282 284 285 287 290 292 292 292 293 294 293 294 293 290 289 290 291
263 262 262 265 270 272 274 274 275 275 276 276 276 275 273 274 276 277 277 281 283 286 285 284 284 284 285 286 286 287 288 290 293 294 294 294 295 295 294 292 291 292 292
265 264 263 264 267 269 269 270 273 273 274 273 275 273 270 269 272 274 277 280 283 284 284 284 284 284 287 288 286 287 290 292 294 295 294 294 295 296 295 294 294 293 293
265 265 264 264 265 266 267 268 270 272 273 272 273 271 268 267 269 273 276 281 283 282 282 284 285 286 286 287 286 285 289 292 293 293 293 294 295 295 295 296 296 296 296
266 266 265 265 265 266 267 267 269 271 271 271 270 268 267 268 272 276 279 282 283 283 283 287 288 288 287 288 288 286 288 292 294 293 292 293 295 296 296 296 298 297 298
265 265 264 264 264 266 268 268 270 271 270 269 269 268 269 271 273 277 279 282 284 285 286 288 288 290 289 289 289 289 289 291 294 295 295 295 296 296 296 296 296 296 295
264 264 263 265 265 266 268 269 270 270 270 270 269 269 270 273 275 277 280 283 285 286 287 288 289 290 290 290 290 290 291 292 293 294 294 295 296 295 295 295 295 295 295
264 265 264 265 264 264 266 267 267 267 268 270 269 269 270 272 274 277 280 283 284 286 286 287 288 288 289 289 290 290 290 290 291 292 293 295 295 296 296 296 295 296 296
263 264 265 265 264 266 267 267 266 266 267 268 269 270 271 274 276 278 279 280 282 283 284 284 287 287 288 288 288 288 288 288 289 290 292 294 294 295 296 297 297 297 297
263 264 264 265 266 267 268 268 268 269 270 270 271 272 273 275 277 279 280 281 281 281 282 284 285 286 287 289 289 288 287 287 288 289 291 293 294 295 296 296 296 298 298
264 265 266 267 269 269 268 268 269 269 270 271 272 273 275 277 278 279 280 280 281 283 283 284 285 285 287 288 288 288 288 288 288 289 290 292 294 296 297 296 295 296 297
265 266 268 269 270 272 271 270 269 269 270 272 273 274 276 277 277 277 278 279 281 283 284 285 287 287 288 288 288 288 288 288 288 289 289 290 292 294 297 298 297 296 296
265 268 271 271 269 269 271 272 271 269 270 271 273 273 275 276 276 278 279 281 283 284 285 286 288 289 289 288 288 288 287 288 289 289 289 289 291 292 293 296 297 297 297
264 267 270 269 267 268 268 268 269 270 270 270 272 274 276 278 280 281 282 283 284 285 286 287 289 290 290 290 289 289 290 291 291 291 291 291 291 291 293 295 295 296 297
263 265 267 268 269 270 267 266 268 270 271 272 273 274 277 279 281 281 281 282 284 285 285 287 291 292 291 290 289 289 291 292 292 292 293 292 291 292 292 293 293 294 296
262 263 265 267 269 269 269 268 269 270 271 272 273 274 277 280 282 282 282 282 282 283 285 287 289 290 290 289 290 290 291 291 292 292 293 293 293 293 294 294 293 294 294
262 263 265 266 266 267 267 267 269 269 271 273 273 275 278 281 282 283 282 282 284 285 286 287 288 287 288 289 289 289 289 290 292 292 293 294 295 295 295 294 294 294 295
263 263 265 264 265 265 265 266 267 269 271 274 275 276 277 279 281 282 283 284 285 285 286 287 288 287 289 291 290 289 289 290 291 291 292 293 295 296 296 296 296 295 295
262 263 263 264 263 263 265 265 266 268 271 273 274 276 278 280 280 281 282 284 285 285 285 286 287 288 288 290 290 290 290 291 291 291 291 293 295 296 296 297 298 298 297
264 264 264 263 261 262 264 264 265 268 270 273 275 278 280 281 281 282 283 284 286 286 286 286 287 289 290 291 292 292 293 293 293 293 293 295 297 297 297 297 298 299 299
Height
5817 5817 5817 5817 5817 5818 5818 5817 5817 5817 5817 5816 5816 5816 5816 5815 5815 5815 5815 5816 5816 5816 5817 5817 5817 5817 5818 5818 5818 5818 5818 5818 5818 5818 5818 5818 5818 5818 5817 5817 5816 5816 5815
5814 5815 5815 5815 5815 5816 5816 5815 5815 5815 5815 5814 5814 5814 5813 5813 5813 5813 5813 5813 5813 5813 5814 5814 5814 5814 5814 5814 5814 5815 5815 5814 5814 5814 5813 5813 5813 5812 5812 5811 5811 5810 5809
5812 5812 5813 5813 5813 5814 5814 5813 5813 5813 5813 5812 5812 5812 5811 5811 5810 5810 5810 5810 5810 5811 5811 5811 5811 5812 5811 5811 5811 5811 5810 5810 5810 5809 5809 5808 5808 5807 5807 5806 5804 5804 5803
5809 5810 5810 5811 5811 5811 5811 5811 5811 5811 5811 5810 5810 5809 5809 5808 5808 5808 5808 5808 5808 5808 5808 5808 5808 5809 5808 5808 5808 5807 5807 5806 5805 5805 5804 5804 5803 5802 5801 5800 5799 5798 5797
5806 5807 5807 5808 5808 5809 5809 5809 5809 5809 5808 5808 5807 5807 5807 5806 5806 5805 5805 5805 5805 5805 5805 5805 5805 5805 5805 5805 5805 5804 5803 5802 5801 5800 5800 5799 5798 5797 5796 5795 5794 5793 5792
5802 5803 5804 5804 5805 5805 5806 5806 5806 5806 5806 5805 5805 5805 5804 5804 5803 5803 5803 5803 5803 5802 5802 5803 5802 5802 5802 5801 5801 5800 5799 5798 5797 5796 5795 5794 5793 5791 5790 5789 5788 5787 5786
5799 5800 5800 5801 5801 5802 5802 5802 5802 5802 5802 5802 5802 5801 5801 5801 5801 5800 5800 5800 5799 5799 5799 5799 5798 5798 5797 5797 5796 5796 5795 5793 5792 5791 5790 5789 5787 5786 5785 5783 5782 5781 5780
5794 5795 5796 5797 5797 5798 5798 5798 5798 5798 5798 5798 5798 5798 5798 5798 5797 5797 5796 5796 5796 5795 5795 5795 5794 5793 5793 5792 5791 5791 5789 5788 5787 5786 5785 5783 5781 5780 5779 5777 5776 5774 5773
5789 5790 5791 5792 5793 5793 5794 5794 5794 5794 5794 5793 5793 5793 5793 5794 5793 5793 5793 5792 5792 5791 5791 5790 5789 5788 5787 5786 5786 5785 5784 5783 5782 5780 5779 5777 5775 5774 5773 5771 5770 5768 5767
5784 5785 5786 5787 5787 5788 5789 5789 5789 5789 5789 5789 5789 5789 5789 5789 5789 5789 5789 5788 5787 5786 5786 5785 5784 5783 5782 5781 5780 5779 5778 5777 5776 5774 5773 5771 5770 5768 5767 5765 5763 5762 5760
5778 5779 5780 5781 5782 5783 5784 5784 5784 5784 5784 5784 5784 5784 5784 5784 5784 5784 5784 5783 5782 5781 5781 5780 5779 5778 5776 5775 5774 5773 5773 5771 5770 5768 5767 5765 5764 5762 5761 5759 5757 5755 5753
5773 5774 5774 5775 5776 5777 5778 5779 5779 5779 5779 5779 5779 5779 5779 5779 5779 5778 5778 5778 5777 5776 5775 5774 5773 5772 5771 5770 5769 5767 5766 5765 5764 5763 5761 5760 5758 5756 5754 5752 5751 5749 5747
5767 5768 5769 5770 5771 5772 5772 5773 5773 5773 5773 5774 5774 5774 5774 5774 5774 5773 5772 5772 5771 5770 5769 5768 5767 5766 5765 5764 5763 5761 5760 5759 5758 5756 5755 5754 5752 5750 5748 5746 5744 5742 5740
5761 5762 5762 5763 5764 5765 5765 5766 5766 5767 5767 5767 5768 5768 5768 5768 5768 5767 5767 5766 5765 5765 5764 5763 5762 5760 5759 5758 5757 5755 5754 5753 5751 5750 5749 5747 5745 5743 5741 5739 5737 5735 5734
5754 5755 5756 5757 5758 5758 5759 5759 5760 5760 5760 5761 5761 5761 5761 5762 5761 5761 5760 5759 5758 5758 5757 5756 5755 5754 5753 5752 5750 5749 5747 5746 5745 5743 5742 5740 5739 5737 5735 5733 5731 5729 5727
5747 5748 5749 5749 5750 5751 5752 5752 5753 5753 5753 5754 5754 5754 5754 5754 5754 5753 5753 5752 5751 5750 5750 5749 5748 5747 5746 5744 5743 5741 5740 5739 5738 5736 5735 5733 5732 5730 5728 5726 5724 5722 5720
5741 5741 5742 5742 5743 5744 5744 5745 5745 5746 5746 5746 5747 5747 5747 5747 5746 5746 5745 5745 5744 5743 5742 5741 5740 5739 5738 5736 5735 5734 5733 5732 5731 5729 5728 5726 5725 5723 5721 5719 5717 5715 5712
5734 5734 5735 5735 5736 5737 5737 5737 5738 5739 5739 5739 5739 5739 5739 5739 5739 5738 5738 5737 5737 5736 5735 5734 5733 5731 5730 5729 5728 5727 5726 5725 5724 5722 5720 5719 5718 5716 5714 5712 5709 5707 5705
5727 5727 5728 5728 5729 5730 5730 5730 5731 5732 5732 5732 5732 5732 5732 5732 5732 5731 5731 5730 5729 5729 5727 5726 5725 5724 5723 5722 5721 5720 5719 5718 5716 5715 5713 5712 5710 5708 5706 5704 5702 5699 5697
5720 5721 5721 5721 5722 5723 5723 5724 5724 5725 5725 5725 5726 5726 5725 5725 5725 5724 5724 5723 5722 5721 5720 5719 5718 5717 5716 5715 5714 5713 5712 5711 5709 5708 5706 5704 5702 5700 5698 5696 5694 5691 5689
5714 5714 5715 5715 5716 5716 5717 5717 5718 5718 5718 5719 5719 5719 5719 5718 5718 5717 5717 5716 5715 5715 5714 5713 5712 5711 5710 5709 5708 5707 5705 5704 5702 5700 5698 5696 5694 5693 5690 5688 5686 5683 5681
5707 5708 5708 5709 5709 5710 5710 5710 5711 5711 5711 5712 5712 5712 5712 5711 5711 5710 5709 5709 5708 5708 5707 5706 5705 5704 5703 5702 5701 5699 5698 5696 5694 5693 5691 5689 5687 5685 5683 5680 5677 5675 5673
5700 5701 5702 5702 5702 5703 5703 5704 5704 5704 5704 5705 5705 5705 5704 5704 5704 5703 5702 5702 5701 5701 5700 5699 5698 5697 5696 5695 5694 5692 5691 5689 5687 5685 5683 5681 5679 5677 5675 5672 5669 5667 5665
5692 5693 5694 5695 5695 5696 5696 5697 5697 5697 5697 5698 5698 5698 5698 5697 5697 5696 5695 5695 5694 5694 5693 5692 5691 5690 5689 5688 5686 5685 5683 5681 5679 5677 5675 5673 5671 5669 5667 5664 5662 5659 5657
5685 5685 5686 5687 5688 5689 5689 5690 5691 5691 5691 5691 5691 5690 5690 5690 5690 5689 5688 5688 5687 5686 5686 5685 5684 5682 5681 5680 5679 5677 5675 5673 5671 5669 5668 5666 5663 5661 5659 5657 5654 5652 5649
5678 5678 5679 5680 5681 5682 5683 5684 5684 5684 5684 5684 5684 5683 5683 5683 5682 5681 5681 5680 5680 5679 5678 5677 5676 5675 5673 5672 5671 5669 5668 5666 5664 5662 5660 5658 5656 5653 5651 5649 5647 5644 5642